Other Public Products
Issued by NWS Grand Forks, ND

Home | Current Version | Previous Version | Graphics & Text | Print | Product List | Glossary On
Versions: 1 2 3 4 5 6 7 8 9 10 11 12 13 14 15 16 17 18 19 20 21 22 23 24 25 26 27 28 29 30 31 32 33 34 35 36 37 38 39 40 41 42 43 44 45 46 47 48 49 50
000
FPUS83 KFGF 020310
OPUFGF
PRAIRIE TO PINES WEATHER ROUNDUP
NATIONAL WEATHER SERVICE EASTERN NORTH DAKOTA/GRAND FORKS ND
1000 PM CDT MON JUN 01 2015

 **SATELLITE DATA USED TO AUGMENT SKY COVER AT AUTOMATED STATIONS**
 *****  WEATHER ACROSS EASTERN NORTH DAKOTA  *****

CITY           SKY/WX    TMP DP  RH WIND       PRES   REMARKS
GRAND FORKS    MOCLDY    68  46  45 SE16      29.88S
GRAND FORKS AF MOCLDY    69  48  46 S15       29.87S
GRAND CITY NWS   N/A     66 N/A N/A SE21        N/A
BUXTON         NOT AVBL
DEVILS LAKE    CLOUDY    72  57  60 S14       29.80F
FARGO          CLEAR     69  46  43 SE17G25   29.91R
WAHPETON ARPT  PTCLDY    64  45  48 SE14      29.94S
$$

 *****  WEATHER ACROSS CENTRAL AND WESTERN NORTH DAKOTA  *****

CITY           SKY/WX    TMP DP  RH WIND       PRES   REMARKS
JAMESTOWN      PTCLDY    71  58  63 S13       29.84R
BISMARCK       PTCLDY    70  61  73 SE6       29.79R
MINOT          CLOUDY    66  56  70 NW10      29.78R
MINOT AFB      CLOUDY    68  68 100 E7        29.76S
GARRISON         N/A     66  57  72 E6        29.79F
WILLISTON      PTCLDY    75  57  53 NE13      29.76R
DICKINSON      MOCLDY    70  61  73 SE8       29.76S
HETTINGER      MOCLDY    71  60  68 SE8       29.78F
$$

 *****  OTHER OBSERVATIONS NORTHEAST NORTH DAKOTA  *****

CITY           SKY/WX    TMP DP  RH WIND       PRES   REMARKS
WALHALLA       TSTM      64  59  82 MISG      29.89R
LANGDON        MOCLDY    63  55  77 SE9G15    29.89R
CAVALIER       MOCLDY    70  48  46 S8G17     29.89R THUNDER
GRAFTON        FAIR      68  48  49 SE13      29.88R
CANDO          HVY RAIN  61  59  94 N18G31    29.86R
FORT TOTTEN      N/A     71  57  60 SE9       29.95
ROLLA          MOCLDY    59  59 100 SE8       29.87R
RUGBY          NOT AVBL
 ***** THE ABOVE OBSERVATIONS ARE NON NWS ARE NOT QUALITY
        CONTROLLED AND MAY MIS-REPORT RAIN FOR SNOW...
$$

 *****  OTHER OBSERVATIONS SOUTHEAST NORTH DAKOTA *****

CITY           SKY/WX    TMP DP  RH WIND       PRES   REMARKS
COOPERSTOWN    NOT AVBL
VALLEY CITY    FAIR      68  52  56 SE15      29.88R
OAKES            N/A     66  57  72 SE12      29.88R
GWINNER        NOT AVBL
BUFFALO        NOT AVBL
WYNDMERE         N/A     70  48  46 SE10        N/A
 ***** THE ABOVE OBSERVATIONS ARE NON NWS ARE NOT QUALITY
       CONTROLLED AND MAY MIS-REPORT RAIN FOR SNOW...
$$

  *****  WEATHER ACROSS NORTHERN MINNESOTA  *****

CITY           SKY/WX    TMP DP  RH WIND       PRES   REMARKS
FLAG ISLAND    CLOUDY    61  50  67 S17       29.96S
WARROAD        PTCLDY    61  48  63 SE9       29.97S
ROSEAU         MOCLDY    63  48  59 SE8       29.96S
HALLOCK        CLOUDY    66  46  48 SE15      29.89S
THF RVR FALLS  PTCLDY    63  45  51 SE14      29.95S
HALSTAD        NOT AVBL
FOSSTON        CLEAR     61  45  55 SE10G17   29.98S
BAUDETTE       MOCLDY    60  40  47 SE8       30.00S
WASKISH        MOCLDY    61  41  48 SE6       30.03R
CROOKSTON      FAIR      64  46  52 SE17      29.92S
$$
  *****  WEATHER ACROSS CENTRAL AND WEST MINNESOTA  *****

CITY           SKY/WX    TMP DP  RH WIND       PRES   REMARKS
BEMIDJI        CLEAR     59  37  44 SE10      30.03R
PARK RAPIDS    CLOUDY    63  38  39 SE12      30.03S
WADENA         CLEAR     59  43  55 SE9       30.03S
DETROIT LAKES  CLEAR     63  46  55 SE13      30.00S
MOORHEAD       CLEAR     66  46  48 SE13      29.93S
FERGUS FALLS   CLEAR     66  45  45 SE16      29.97S
ELBOW LAKE     CLOUDY    65  46  48 SE14      29.98S
MORRIS MN      PTCLDY    66  46  48 SE17      29.98S
STAPLES        CLOUDY    61  37  41 SE6       30.05S
WHEATON        PTCLDY    63  48  59 SE13      29.96S
$$
  *****  WEATHER ELSEWHERE ACROSS MINNESOTA  *****

CITY           SKY/WX    TMP DP  RH WIND       PRES   REMARKS
DULUTH         PTCLDY    48  28  46 E12       30.14F
INTRNTL FALLS  CLOUDY    63  38  39 VRB5      30.04S
ELY            MOCLDY    52  28  40 SE9       30.14R
CLOQUET        MOCLDY    45  28  53 CALM      30.14S
BRAINERD       CLEAR     58  38  47 SE6       30.07F
HIBBING        CLOUDY    54  37  52 SE12      30.12R
ALEXANDRIA     CLEAR     63  42  46 SE13      30.04S
SAINT CLOUD    CLEAR     60  39  45 E6        30.08F
MINNEAPOLIS    PTCLDY    62  39  42 SE9       30.11S
$$

  *****  WEATHER ACROSS SOUTH DAKOTA  *****

CITY           SKY/WX    TMP DP  RH WIND       PRES   REMARKS
SIOUX FALLS    PTCLDY    69  48  47 S16G23    30.00S
BROOKINGS      CLEAR     70  48  46 S14       29.99S
WATERTOWN      CLEAR     68  49  50 S14       29.95S
HURON          CLEAR     72  54  53 S15G22    29.90S
SISSETON         N/A     68  50  52 S12       29.92S
ABERDEEN       CLEAR     71  57  61 S13       29.88R
MITCHELL       PTCLDY    72  53  51 S16       29.93S
PIERRE         CLOUDY    71  61  70 SE10      29.82F
MOBRIDGE       CLEAR     73  63  70 SE15      29.78F
RAPID CITY     CLOUDY    74  59  59 E18G24    29.84R
$$

  *****  SOME WEATHER IN NEARBY STATES *****

CITY           SKY/WX    TMP DP  RH WIND       PRES   REMARKS
GLASGOW MT     MOCLDY    71  45  39 NE20      29.79R
GREAT FALLS MT CLOUDY    56  53  90 SW9       29.88S
CHEYENNE WY    PTCLDY    63  47  55 S7        30.05F
SCOTTSBLUFF NE CLOUDY    64  56  75 E9        29.96S
OMAHA NE       PTCLDY    65  51  60 SE10      30.06S
DES MOINES IA  PTCLDY    62  53  72 S7        30.12R
DAVENPORT IA   MOCLDY    59  45  59 E8        30.17R
CHICAGO IL     PTCLDY    49  36  61 N6        30.22R
EAU CLAIRE WI  PTCLDY    58  37  45 SE7       30.16S
LA CROSSE WI   PTCLDY    60  43  53 SE6       30.17R
$$

  *****  SOME NATIONAL WEATHER *****

CITY           SKY/WX    TMP DP  RH WIND       PRES   REMARKS
LA GUARDIA NY  LGT RAIN  52  50  93 NE21G26   30.16R FOG
RALEIGH NC     MOCLDY    70  67  90 S7        30.04R
ATLANTA GA     CLOUDY    73  67  81 S5        30.06R
NEW ORLEANS LA MOCLDY    77  69  76 SW7       30.00R
OKLAHOMA CITY  PTCLDY    68  63  84 SE7       30.03R
ALBUQUERQUE NM CLOUDY    79  39  23 W7        30.11R
SALT LAKE CITY CLOUDY    73  47  39 NW14      29.83R
LOS ANGELES CA PTCLDY    61  56  83 SW9       29.99R
BOISE ID       MOCLDY    73  45  36 N10       29.79R
SEATTLE WA     CLOUDY    57  52  83 S6        29.95R
$$

*** WEATHER ACROSS MANITOBA...SASKATCHEWAN AND ONTARIO ***
                ***ONTARIO***

CITY           SKY/WX    TMP DP  RH WIND       PRES   REMARKS
GERALDTON      CLEAR     50  28  43 S6        30.19F
THUNDER BAY    PTCLDY    45  36  70 E6        30.20S
SIOUX LOOKOUT  MOCLDY    61  39  44 S6        30.03F
TORONTO        MOCLDY    54  45  71 CALM      30.21S
BIG TROUT LK   CLOUDY    54  34  47 S8        29.93F
PICKLE LAKE    NOT AVBL
DRYDEN         CLOUDY    63  39  42 S10       30.01F
KENORA         CLOUDY    63  43  48 S9        29.99R
$$
                *** MANITOBA***

CITY           SKY/WX    TMP DP  RH WIND       PRES   REMARKS
BRANDON        PTCLDY    61  57  88 SE7       29.83R
DAUPHIN        CLEAR     68  57  68 SW7       29.78R
ISLAND LAKE    PTCLDY    61  46  59 S8        29.79S
PILOT MOUND      N/A     59  57  94 E15         N/A
THE PAS        PTCLDY    61  45  55 NW17G24   29.80R
THOMPSON       LGT RAIN  54  50  87 NW12G23   29.71R
WINNIPEG       MOCLDY    66  50  55 S18G26    29.87S
LYNN LAKE      LGT RAIN  46  39  76 W13G18    29.75R
CHURCHILL      CLOUDY    52  46  82 S13G18    29.53F
GILLAM         LGT RAIN  54  46  76 S12       29.65F
$$
                ***SASKATCHEWAN***

CITY           SKY/WX    TMP DP  RH WIND       PRES   REMARKS
ESTEVAN        PTCLDY    68  57  68 N12       29.83R
KINDERSLEY     MOCLDY    66  45  45 NE7       29.93R
LLOYDMINSTER   NOT AVBL
PRINCE ALBERT  PTCLDY    59  46  63 NW7       29.90R
REGINA         MOCLDY    66  45  45 N10       29.87R
YORKTON        CLEAR     64  46  52 NW12      29.83R



USA.gov is the U.S. government's official web portal to all federal, state and local government web resources and services.